Terug naar catalogus

STARLINK-34651

ActiefCommunicatieSSO
NORAD 64861·PAYLOAD·🇺🇸 United States

Gelanceerd Jul 19, 2025 vanaf Vandenberg Space Force Base

Loading…

Volgende Passages (komende 24 uur)

TLE

VersSource: CelesTrak SupGP

Epoch: Sep 15, 2026, 03:02 UTC

1 64861C 25152V   26258.12687500 -.00053679  00000+0 -16657-2 0  2588
2 64861  97.2847 108.7099 0001665  92.1062 343.3418 15.33477182    14

Volg STARLINK-34651 in realtime met AllMySat

Download on the App Store